www.pogodaiklimat.ru
ПОГОДА в Порт-Анджелесе
Время
и дата
03:30 06.02
03:50 06.02
04:10 06.02
04:30 06.02
04:50 06.02
05:10 06.02
05:30 06.02
05:50 06.02
06:10 06.02
06:30 06.02
06:50 06.02
07:10 06.02
07:30 06.02
07:50 06.02
08:10 06.02
08:30 06.02
08:50 06.02
09:10 06.02
09:30 06.02
09:50 06.02
10:10 06.02
10:30 06.02
10:50 06.02
11:10 06.02
11:30 06.02
11:50 06.02
12:10 06.02
12:30 06.02
12:50 06.02
13:10 06.02
13:30 06.02
13:50 06.02
14:10 06.02
14:30 06.02
14:50 06.02
15:10 06.02
15:30 06.02
15:50 06.02
16:10 06.02
16:30 06.02
16:50 06.02
17:10 06.02
17:30 06.02
17:50 06.02
18:10 06.02
18:30 06.02
18:50 06.02
19:10 06.02
Ветер
(напр.,м/с)
Видим. Явления Облачность Т
(С)
Тd
(С)
f
(%)
Тe
(С)
Тes
(С)
Комфортность P
(гПа)
Po
(гПа)
Тmin
(С)
Tmax
(С)
R
(мм)
R24
(мм)
S
(см)
штиль 0 11 км 10/10 1800 м +7.0 +5.7 91 +6 +6 1025.9
СВ 2 16 км 10/10 1800 м +7.0 +6.0 93 +5 +5 1025.9 +6.8 +8.0 0.3
СВ 2 16 км 10/10 1800 м +7.0 +6.1 94 +5 +5 1025.9
СВ 2 16 км 10/5 1800 m
[Ac]
+7.0 +4.9 86 +5 +5 1025.9
штиль 0 16 км 10/0 2100 m
[Ac]
+6.9 +5.7 92 +6 +6 1025.9
штиль 0 16 км 10/5 1950 m
[Ac]
+6.5 +5.0 90 +6 +6 1026.3
штиль 0 16 км 10/10 1410 м +6.7 +4.8 88 +6 +6 1026.3
штиль 0 16 км 8/5 1410 m
[Ac]
+6.4 +4.7 89 +5 +5 1026.6
штиль 0 16 км 8/8 1800 м +6.4 +5.7 95 +5 +5 1026.3
штиль 0 16 км 8/8 1440 м +6.4 +5.9 97 +5 +5 1026.3
штиль 0 16 км 8/8 1350 м +6.0 +5.0 93 +5 +5 1026.6
Ю 2 16 км 8/8 1410 м +5.8 +5.0 95 +3 +3 1026.6
Ю 2 16 км 8/8 1650 м +5.6 +4.8 95 +3 +3 1026.6
Ю 2 16 км 10/10 1650 м +5.7 +5.0 95 +3 +3 1026.9
ЮВ 3 16 км 5/5 1650 м +6.0 +5.2 95 +3 +3 1026.6
ЮВ 2 16 км ясно +6.4 +4.5 88 +4 +4 1026.6
штиль 0 16 км 5/5 1800 m
[Ac]
+6.7 +4.6 86 +6 +6 1026.6
штиль 0 16 км 10/10 1800 м +7.5 +4.7 82 +7 +7 1026.6
В 3 16 км 8/8 1800 м +7.3 +5.1 86 +4 +5 1026.6
В 3 16 км 5/5 1800 m
[Ac]
+7.5 +5.2 85 +5 +5 1026.6 +5.6 +7.5
В 3 16 км 5/0 2550 m
[Ac]
+7.6 +5.5 87 +5 +6 1026.6
В 4 16 км 8/8 1800 m
[Ac]
+7.5 +5.7 88 +4 +4 1026.9
В 4 16 км 10/10 1800 м +7.7 +6.0 89 +4 +4 1026.9
В 3 16 км 5/5 1800 м +8.0 +6.5 90 +5 +7 1026.9
В 2 16 км 8/8 1800 м +7.8 +6.6 92 +6 +6 1026.9
В 3 16 км 8/8 1800 m
[Ac]
+8.0 +6.3 89 +5 +6 1026.9
штиль 0 16 км 8/5 1500 m
[Ac]
+8.2 +6.6 90 +7 +9 1026.9
штиль 0 16 км 8/5 1500 m
[Ac]
+8.0 +7.0 93 +7 +9 1026.6
В 3 16 км 8/5 1950 m
[Ac]
+7.7 +6.8 94 +5 +6 1026.3
В 3 16 км 10/0 2100 m
[Ac]
+7.9 +7.0 94 +5 +6 1025.9
В 2 16 км 10/10 1800 м +8.3 +7.2 93 +6 +6 1025.9
В 2 16 км 10/10 1650 м +8.0 +7.1 94 +6 +6 1025.6
В 2 16 км 10/10 1500 м +7.9 +7.1 95 +6 +6 1025.9
В 2 16 км слабая морось 10/10 1500 m
[St]
+8.0 +7.2 95 +6 +6 1025.9
В 3 16 км слабая морось 10/10 1440 m
[St]
+8.0 +7.3 95 +5 +5 1025.6
В 2 16 км слабая морось 10/10 1500 m
[St]
+8.0 +7.4 96 +6 +6 1025.9
В 3 16 км 10/10 1500 м +7.9 +7.4 97 +5 +5 1025.3
В 3 16 км 10/10 1500 м +7.8 +7.5 98 +5 +5 1025.3 +7.5 +8.3
В 3 16 км 10/0 2100 m
[Ac]
+7.9 +7.5 97 +5 +5 1024.6
В 3 16 км 10/0 2100 m
[Ac]
+7.7 +7.6 99 +5 +5 1024.6
В 3 16 км 10/0 2100 m
[Ac]
+7.5 +7.5 100 +4 +4 1024.2
ЮВ 2 16 км 8/0 2100 m
[Ac]
+7.5 +7.3 99 +5 +5 1023.9
штиль 0 16 км 8/0 2100 m
[Ac]
+7.6 +7.0 96 +7 +7 1023.9
СВ 2 11 км 10/5 1800 m
[Ac]
+7.3 +6.9 97 +5 +5 1023.9
штиль 0 16 км 8/5 1800 m
[Ac]
+7.5 +7.1 97 +6 +6 1023.6
В 2 16 км 8/8 1800 m
[Ac]
+7.1 +6.7 97 +5 +5 1023.2
Ю 2 16 км 10/0 2100 m
[Ac]
+7.0 +6.5 97 +5 +5 1023.2
Ю 2 16 км 10/0 2100 m
[Ac]
+6.9 +6.4 97 +4 +4 1022.9
Местоположение метеостанции Coast Guard Air Station: широта 48.1415 долгота -123.4141 высота над уровнем моря 3 м.
В архиве по умолчанию представлена погода в Порт-Анджелесе за последние 1-2 суток. Обновление информации о фактической погоде в базе происходит ежечасно! Архивные данные за месяц целиком и за предыдущие месяцы Вы можете получить, выбрав интересующий диапазон дат из раскрывающегося списка и нажав кнопку "Ввод!".
Внимание! Архив погоды МЕТАР в базе сайта по станциям, не включенным в климатический монитор, хранится не более 60 дней. Нет смысла пытаться выбрать более раннюю дату.
*Определитесь, кто Вы:
Внимание! Время в таблицах - местное (без учета летнего времени). Для получения всемирного времени необходимо вычесть поправку, которая равна -8 ч.
Смотрите также архив погоды в соседних городах и на ближайших метеорологических станциях:
Партнеры нашего сайта:      
Пояснения к столбцам:
  • Ветер - указаны скорость ветра в м/с - средняя за 10 мин, порывы в срок и между сроками (в фигурных скобках) и направление, откуда дует ветер: С - северный,
  • СВ - северо-восточный, В - восточный, ЮВ - юго-восточный, Ю - южный, ЮЗ - юго-западный, З - западный, СЗ - северо-западный.
  • Видимость - горизонтальная дальность видимости в метрах или километрах. При видимости от 1 до 10 км при отсутствии осадков обычно наблюдается дымка, при ухудшении видимости до 1 км и менее - туман. В сухую погоду видимость может ухудшаться дымом, пылью или мглою.
  • Явления - указаны атмосферные явления, наблюдавшиеся в срок или в последний час перед сроком; фигурными скобками обозначены явления, наблюдавшиеся между сроками (за 1-3 часа до срока); квадратными скобками обозначены град или гололедные отложения с указанием их диаметра в мм.
  • Облачность - указаны через наклонную черту общая и нижняя облачность в баллах и высота нижней границы облаков в метрах; квадратными скобками обозначены формы облаков: Ci - перистые, Cs - перисто-слоистые, Cc - перисто-кучевые, Ac - высококучевые, As - высокослоистые, Sc - слоисто-кучевые, Ns - слоисто-дождевые, Cu - кучевые, Cb - кучево-дождевые. Подробнее классификацию облаков см. в Атласе облаков (PDF).
  • T - Температура воздуха - температура, измеренная на высоте 2 м над землей.
  • Td - Температура точки росы - температура, при понижении до которой содержащийся в воздухе водяной пар достигнет насыщения.
  • f - Относительная влажность воздуха - влажноcть воздуха, измеренная на высоте 2 м над землей.
  • Te - Эффективная температура - температура, которую ощущает одетый по сезону человек в тени. Характеристика душности погоды. При расчете учитывается влияние влажности воздуха и скорости ветра на теплоощущения человека.
  • Tes - Эффективная температура на солнце - температура, которую ощущает человек, с поправкой на солнечный нагрев. Характеристика знойности погоды. Зависит от высоты солнца над горизонтом, облачности и скорости ветра. Ночью, в пасмурную погоду, а также при ветре 12 м/с и более поправка равна нулю.
  • P - Атмосферное давление - приведенное к уровню моря атмосферное давление.
  • Po - Атмосферное давление - измеренное на уровне метеостанции атмосферное давление.
  • Tmin - Минимальная температура - минимум температуры воздуха на высоте 2 м над землей.
  • Tmax - Максимальная температура - максимум температуры воздуха на высоте 2 м над землей.
  • R - Количество осадков - Количество выпавших осадков за период времени, мм. При наведении курсора мыши на число - период времени, за который выпало указанное количество осадков.
  • R24 - Количество осадков - Количество выпавших осадков за 24 часа, мм.
  • S - Снежный покров - Высота снежного покрова, см. При наведении курсора мыши на число - состояние снежного покрова и степень покрытия местности в баллах.